Location: Tel Aviv
(32.0670°N, 34.7670°E)
Time: 12:57:12
(UTC+03:00)

Explorer 11/Cluster Stage 4 - Pass Details

Date: 15 September 2024
Orbit: 464 x 1208 km, 28.8° (Epoch: 05 October)

Event Time Altitude Azimuth Distance (km) Brightness Sun altitude
Rises 12:03:04 0° 274° (W) 4,066 10.1 59.7°
Reaches altitude 10° 12:06:07 10° 267° (W) 3,134 9.7 59.9°
Maximum altitude 12:13:20 39° 203° (SSW) 1,726 9.6 60.2°
Drops below altitude 10° 12:20:16 10° 138° (SE) 3,000 10.1 60.5°
Sets 12:23:08 0° 130° (SE) 3,877 10.4 60.5°
